GEESAT 2-03

Satellite information

Favourite Embed

Satellite Type and Status

PAYLOADIN ORBIT

Key statistics

Satellite GEESAT 2-03 at a glance.

Uptime

521

Days in orbit

Revolutions

≈ 14.9

Per day

Orbit

LEO

Low Earth Orbit

Inclination

50.0

Latest

Satellite identification and parameters

Extended collection of information and parameters for GEESAT 2-03.

Object identification

Identified? True

Debris? False

Object name: GEESAT 2-03

International designator: 2024-023C

Object number (NORAD): 58907

Object ID (CCSDS): 58907

Country: PEOPLES REPUBLIC OF CHINA (PRC)

Current information (Y/N): Y

RCS size: MEDIUM

Orbital parameters

Period: 96.33 minutes

Inclination: 50.0007 deg

SMA: 6960.918 km

Apoapsis: 587.08 km

Periapsis: 578.486 km

RAAN: 155.8387 deg

Eccentricy: 0.0006173

Argument of periapsis: 124.5577 deg

Mean anomaly: 235.5949 deg

Mean motion: 14.94868446 rev/day

Mean motion (dot): 0.00000976 rev/day2

B* drag term: 0.00011135 1/REarth

Two-line elements (TLE)

Creation date: July 6, 2025, 10:26 p.m.

Reference frame: TEME

Reference center: EARTH

Epoch: July 6, 2025, 8:23 p.m. UTC

TLE line 0: 0 GEESAT 2-03

TLE line 1: 1 58907U 24023C 25187.84939739 .00000976 00000-0 11135-3 0 9991

TLE line 2: 2 58907 50.0007 155.8387 0006173 124.5577 235.5949 14.94868446 77621

Live tracking on map

Real-time ground track for satellite GEESAT 2-03.

In-orbit conjunctions

There are no conjunctions computed for GEESAT 2-03, at the moment. Check back to stay up to date, as we update our databases every day.

Go to all conjunctions

Associated space launch

11 LEO communications satellites for Chinese car manufacturer Geely Automotive for testing autonomous driving/inter-vehicle communication services. They also carry payloads for ocean observation.

GEESAT 2-03 was lifted into orbit during the mission ‘Long March 2C | Geely Constellation Group 02’, on board a Long March 2 space rocket.

The launch took place on Feb. 2, 2024, 11:37 p.m. from Launch Complex 3 (LC-3/LA-1).

For more information about the launch, click the button.

Launch to space Long March 2C | Geely Constellation Group 02
Long March 2C | Geely Constellation Group 02

Agency: N/A

Status: Launch Successful

Launch date: Feb. 2, 2024, 11:37 p.m. UTC

Rocket: Long March 2

Launch pad: Launch Complex 3 (LC-3/LA-1)

Location: Xichang Satellite Launch Center, People's Republic of China

...

Latest news about this satellite

News about space launch
China launches 20 satellites on separate inland and sea rocket launches

A pair of Chinese rockets launched 11 mobility services satellites for an automaker and nine further, diverse satellites into orbit late Friday.


Newsletter sign-up

Weekly statistics, charts and insights to help you stay on top of the space industry.